Temp
-2 -2 -2 -2 -2 -2 -2 -2 -2 -2 -2 -2 -2 -2 -2 -2 -2 -2 -3 -3 -4 -4 -5 -5 -4 -5 -5 -6 -6 -6 -5 -6 -6 -7 -6 -6 -6 -5 -5 -5 -6 -6 -7 -6 -7
-3 -3 -2 -2 -2 -2 -2 -2 -2 -2 -2 -2 -2 -2 -2 -2 -2 -2 -2 -2 -3 -3 -3 -4 -4 -5 -5 -6 -5 -6 -7 -6 -7 -7 -7 -6 -7 -6 -5 -5 -6 -6 -7 -6 -6
-3 -3 -3 -3 -2 -2 -2 -2 -2 -2 -2 -2 -2 -2 -2 -2 -2 -2 -2 -2 -2 -2 -3 -4 -5 -6 -4 -5 -5 -7 -6 -7 -7 -7 -7 -7 -7 -6 -6 -5 -5 -6 -7 -7 -6
-3 -3 -3 -3 -3 -2 -2 -2 -2 -2 -2 -2 -2 -2 -2 -2 -2 -2 -2 -2 -2 -2 -3 -4 -5 -5 -3 -5 -5 -7 -7 -7 -8 -7 -7 -7 -7 -6 -6 -6 -6 -6 -6 -7 -6
-3 -3 -3 -3 -3 -3 -2 -2 -2 -2 -2 -2 -2 -2 -2 -2 -2 -2 -2 -2 -2 -3 -4 -4 -5 -6 -4 -6 -6 -7 -7 -8 -8 -8 -7 -8 -8 -8 -7 -6 -6 -6 -6 -6 -6
-3 -3 -3 -3 -3 -3 -2 -2 -2 -2 -2 -2 -2 -2 -2 -2 -2 -2 -3 -2 -3 -4 -4 -4 -5 -6 -5 -6 -7 -7 -7 -7 -8 -8 -8 -7 -8 -8 -7 -7 -6 -6 -6 -6 -6
-3 -3 -3 -3 -3 -3 -3 -2 -2 -2 -2 -3 -2 -2 -2 -2 -2 -2 -2 -3 -3 -4 -3 -4 -5 -6 -6 -7 -7 -7 -7 -7 -7 -8 -8 -7 -8 -8 -8 -8 -7 -6 -6 -6 -6
-4 -3 -3 -3 -3 -3 -3 -2 -2 -2 -2 -3 -2 -2 -2 -2 -2 -2 -2 -3 -3 -3 -4 -4 -4 -6 -6 -7 -8 -7 -7 -7 -8 -7 -8 -8 -7 -7 -8 -8 -8 -7 -6 -7 -7
-4 -4 -3 -3 -3 -3 -3 -3 -2 -2 -2 -2 -2 -2 -3 -2 -2 -2 -2 -3 -3 -3 -4 -4 -4 -5 -7 -7 -7 -7 -7 -8 -8 -8 -7 -8 -8 -6 -7 -8 -8 -8 -7 -6 -6
-4 -4 -3 -3 -3 -3 -3 -3 -3 -3 -3 -2 -2 -2 -3 -3 -2 -2 -3 -3 -3 -3 -4 -5 -5 -5 -6 -6 -6 -6 -6 -8 -8 -8 -8 -8 -8 -7 -7 -7 -7 -8 -7 -7 -7
-4 -4 -3 -3 -3 -3 -3 -3 -3 -3 -3 -3 -3 -3 -3 -3 -3 -3 -3 -3 -3 -3 -4 -4 -5 -5 -5 -5 -5 -6 -5 -7 -8 -8 -8 -8 -8 -7 -7 -7 -7 -7 -8 -8 -7
-4 -4 -4 -3 -3 -3 -3 -3 -3 -3 -2 -3 -3 -3 -3 -3 -3 -3 -3 -3 -3 -3 -4 -4 -4 -4 -4 -4 -4 -4 -4 -5 -6 -6 -7 -7 -7 -7 -6 -7 -7 -8 -7 -8 -7
-4 -4 -4 -4 -4 -3 -3 -3 -3 -3 -3 -3 -3 -3 -3 -3 -3 -3 -3 -3 -3 -3 -4 -4 -4 -4 -4 -4 -4 -4 -4 -4 -4 -5 -6 -5 -6 -8 -6 -7 -7 -7 -7 -8 -7
-5 -5 -4 -4 -4 -4 -4 -4 -4 -4 -3 -3 -3 -3 -3 -3 -3 -3 -3 -3 -3 -3 -4 -4 -4 -4 -4 -4 -4 -4 -4 -4 -5 -5 -5 -5 -5 -6 -7 -6 -7 -7 -7 -7 -8
-5 -5 -5 -5 -4 -4 -4 -4 -4 -4 -4 -4 -4 -4 -4 -3 -3 -3 -3 -3 -3 -4 -4 -4 -4 -4 -4 -4 -4 -4 -4 -4 -5 -5 -5 -5 -5 -7 -6 -6 -7 -7 -7 -7 -7
-6 -5 -5 -5 -5 -5 -4 -5 -4 -4 -4 -4 -4 -3 -4 -4 -4 -4 -3 -4 -4 -4 -4 -4 -4 -4 -4 -4 -4 -4 -4 -4 -5 -5 -5 -5 -5 -6 -7 -7 -7 -6 -7 -7 -7
-6 -6 -5 -5 -5 -5 -5 -5 -5 -5 -4 -4 -4 -4 -4 -4 -4 -4 -4 -4 -4 -4 -4 -4 -4 -4 -5 -5 -5 -5 -5 -5 -5 -6 -5 -5 -6 -6 -7 -6 -6 -6 -7 -7 -7
-6 -6 -6 -6 -5 -5 -5 -5 -5 -5 -5 -4 -4 -4 -4 -4 -4 -4 -4 -4 -4 -4 -4 -4 -4 -5 -5 -5 -5 -5 -5 -5 -5 -6 -6 -6 -6 -6 -6 -6 -6 -7 -7 -7 -7
-6 -6 -6 -6 -6 -6 -6 -5 -5 -5 -5 -4 -4 -4 -4 -4 -4 -4 -4 -4 -4 -4 -5 -5 -5 -5 -5 -6 -6 -5 -6 -6 -6 -6 -6 -6 -7 -7 -6 -6 -7 -7 -7 -7 -7
-7 -6 -6 -6 -6 -6 -6 -5 -5 -5 -5 -5 -4 -4 -4 -4 -4 -4 -4 -4 -4 -5 -5 -5 -5 -5 -6 -6 -6 -6 -6 -7 -8 -7 -7 -7 -7 -7 -7 -6 -7 -7 -7 -7 -7
-7 -7 -6 -6 -6 -6 -6 -6 -5 -5 -5 -5 -5 -4 -5 -5 -5 -5 -4 -4 -4 -5 -5 -5 -6 -6 -6 -7 -6 -7 -8 -7 -7 -8 -8 -7 -7 -7 -7 -7 -7 -7 -7 -7 -7
-7 -7 -7 -6 -6 -6 -7 -6 -6 -5 -5 -5 -5 -5 -5 -5 -5 -5 -5 -5 -5 -5 -5 -5 -5 -5 -7 -7 -8 -8 -8 -8 -8 -8 -8 -8 -8 -7 -7 -7 -8 -8 -8 -8 -8
-7 -7 -7 -7 -6 -7 -7 -6 -6 -6 -5 -5 -5 -5 -5 -5 -5 -5 -5 -5 -5 -5 -5 -5 -5 -6 -6 -8 -8 -8 -9 -9 -9 -9 -9 -8 -8 -8 -8 -8 -9 -8 -8 -8 -8
-8 -7 -7 -7 -7 -7 -7 -6 -6 -6 -6 -6 -6 -6 -6 -5 -5 -5 -5 -5 -5 -5 -5 -5 -5 -6 -6 -7 -8 -9 -9 -9 -9 -9 -9 -9 -9 -9 -9 -8 -8 -8 -8 -8 -8
-8 -7 -7 -7 -7 -7 -7 -7 -7 -6 -6 -6 -6 -6 -6 -6 -6 -6 -5 -5 -5 -5 -5 -6 -6 -6 -7 -7 -8 -7 -8 -9 -9 -9 -9 -9 -9 -9 -9 -9 -8 -9 -9 -9 -9
-9 -8 -8 -8 -7 -7 -7 -8 -7 -6 -6 -6 -6 -6 -6 -6 -5 -5 -6 -6 -6 -6 -6 -6 -6 -7 -7 -8 -8 -8 -8 -9 -9 -9 -9 -9 -9 -9 -9 -9 -9 -9 -9 -9 -9
-10 -10 -10 -9 -8 -8 -8 -8 -7 -7 -6 -6 -6 -6 -6 -6 -6 -6 -6 -6 -6 -6 -7 -7 -6 -6 -7 -7 -8 -8 -9 -9 -9 -9 -9 -9 -10 -9 -9 -9 -9 -9 -9 -9 -9
Height
5914 5916 5917 5917 5918 5919 5921 5921 5922 5923 5924 5925 5926 5927 5927 5927 5929 5930 5931 5932 5931 5931 5931 5930 5929 5929 5927 5925 5925 5926 5927 5924 5924 5922 5920 5920 5920 5920 5919 5917 5914 5911 5910 5911 5913
5915 5916 5917 5918 5920 5920 5922 5923 5924 5925 5926 5928 5928 5929 5929 5929 5930 5931 5933 5932 5933 5932 5931 5932 5931 5932 5931 5931 5929 5928 5928 5927 5926 5926 5923 5923 5924 5922 5922 5920 5915 5913 5911 5911 5914
5915 5917 5918 5919 5921 5922 5923 5924 5926 5928 5929 5930 5930 5931 5931 5932 5932 5932 5933 5933 5933 5933 5932 5934 5933 5936 5934 5933 5933 5931 5930 5930 5929 5930 5927 5926 5926 5924 5924 5923 5920 5917 5915 5915 5914
5915 5916 5918 5920 5921 5923 5924 5926 5927 5929 5930 5931 5932 5932 5933 5934 5934 5933 5933 5934 5934 5935 5935 5934 5935 5935 5936 5934 5933 5932 5932 5930 5931 5933 5931 5929 5928 5927 5926 5925 5925 5922 5918 5920 5919
5914 5915 5917 5919 5921 5923 5925 5926 5928 5930 5931 5932 5933 5933 5935 5936 5936 5934 5935 5935 5935 5936 5935 5935 5934 5934 5934 5935 5935 5934 5934 5934 5933 5935 5934 5932 5931 5930 5928 5928 5928 5925 5924 5923 5923
5912 5914 5916 5918 5921 5923 5925 5927 5929 5930 5932 5933 5933 5934 5935 5937 5936 5936 5935 5935 5937 5937 5936 5935 5936 5937 5939 5937 5938 5937 5937 5935 5933 5936 5936 5934 5933 5932 5931 5930 5930 5929 5926 5925 5924
5911 5914 5916 5918 5920 5923 5925 5927 5929 5931 5933 5933 5934 5935 5936 5938 5938 5938 5937 5936 5937 5937 5937 5936 5936 5940 5940 5939 5939 5939 5939 5939 5937 5935 5936 5936 5938 5935 5935 5933 5931 5932 5930 5928 5926
5909 5912 5915 5917 5919 5921 5924 5927 5929 5931 5933 5934 5934 5936 5937 5937 5938 5939 5938 5939 5939 5940 5940 5938 5938 5940 5942 5941 5941 5940 5940 5939 5939 5938 5938 5939 5939 5939 5936 5935 5934 5932 5932 5932 5930
5907 5910 5913 5916 5918 5921 5923 5926 5929 5931 5932 5934 5935 5936 5937 5937 5938 5939 5940 5940 5941 5941 5943 5940 5940 5941 5942 5941 5942 5940 5938 5939 5940 5939 5939 5939 5939 5940 5939 5937 5936 5934 5933 5933 5932
5905 5908 5910 5913 5916 5920 5923 5925 5928 5930 5931 5933 5934 5937 5937 5938 5938 5939 5940 5940 5941 5942 5943 5943 5941 5942 5942 5941 5941 5940 5939 5938 5940 5939 5937 5938 5939 5941 5941 5940 5937 5936 5936 5935 5935
5902 5905 5908 5911 5915 5918 5921 5923 5927 5928 5929 5931 5933 5935 5935 5937 5939 5939 5939 5940 5941 5942 5943 5943 5943 5942 5941 5941 5940 5940 5939 5938 5939 5938 5939 5939 5939 5939 5941 5941 5940 5938 5937 5938 5936
5900 5903 5906 5909 5913 5916 5918 5921 5925 5928 5929 5930 5931 5932 5934 5936 5937 5938 5940 5940 5941 5942 5942 5943 5943 5942 5941 5941 5940 5940 5939 5936 5937 5937 5937 5936 5937 5937 5938 5938 5938 5939 5939 5939 5938
5896 5900 5903 5907 5910 5913 5916 5920 5923 5925 5928 5929 5930 5932 5933 5935 5936 5937 5939 5940 5941 5941 5941 5942 5942 5942 5941 5940 5940 5939 5938 5937 5937 5936 5935 5935 5935 5935 5937 5936 5937 5938 5940 5940 5939
5893 5896 5900 5904 5909 5911 5915 5918 5920 5923 5925 5928 5929 5931 5932 5933 5935 5936 5938 5940 5939 5941 5941 5940 5940 5940 5940 5940 5939 5938 5936 5935 5936 5936 5935 5934 5934 5933 5933 5935 5936 5939 5938 5939 5939
5889 5893 5897 5901 5905 5908 5912 5914 5917 5920 5923 5927 5928 5930 5931 5933 5934 5936 5937 5938 5938 5939 5940 5939 5939 5939 5938 5938 5937 5937 5935 5934 5934 5933 5933 5932 5931 5931 5932 5935 5937 5938 5938 5938 5937
5885 5889 5893 5897 5901 5904 5908 5911 5915 5918 5919 5923 5925 5927 5930 5931 5932 5933 5935 5936 5936 5936 5937 5936 5936 5937 5937 5936 5935 5934 5933 5932 5932 5931 5931 5931 5932 5933 5934 5934 5933 5936 5938 5938 5936
5881 5885 5890 5893 5897 5901 5905 5908 5912 5913 5917 5919 5921 5925 5928 5929 5931 5932 5933 5934 5935 5935 5934 5934 5934 5935 5934 5934 5933 5931 5931 5930 5931 5930 5930 5930 5932 5932 5930 5929 5932 5935 5935 5935 5935
5877 5881 5885 5890 5894 5898 5901 5905 5907 5909 5911 5916 5919 5922 5925 5928 5929 5930 5931 5932 5933 5933 5932 5933 5932 5932 5932 5933 5931 5929 5928 5927 5928 5928 5930 5929 5931 5929 5928 5929 5931 5931 5931 5933 5934
5871 5876 5881 5886 5890 5894 5898 5900 5903 5907 5911 5914 5917 5920 5923 5925 5927 5927 5928 5929 5930 5931 5932 5931 5931 5931 5930 5930 5930 5927 5926 5925 5924 5924 5925 5927 5928 5925 5926 5927 5929 5929 5929 5931 5932
5865 5871 5877 5881 5885 5889 5893 5895 5899 5904 5908 5912 5914 5918 5919 5921 5924 5926 5927 5928 5928 5929 5929 5930 5929 5928 5927 5926 5926 5925 5925 5924 5922 5923 5923 5923 5923 5922 5923 5922 5925 5927 5927 5927 5928
5859 5865 5871 5876 5880 5884 5888 5891 5895 5899 5904 5909 5911 5914 5916 5919 5920 5922 5924 5926 5925 5926 5926 5929 5928 5927 5925 5923 5921 5922 5920 5919 5919 5920 5919 5920 5920 5918 5919 5921 5922 5924 5924 5925 5925
5852 5859 5864 5869 5875 5879 5882 5886 5890 5894 5898 5903 5907 5910 5913 5915 5917 5918 5920 5921 5922 5922 5923 5923 5924 5924 5924 5921 5919 5916 5916 5917 5916 5918 5916 5917 5916 5916 5917 5918 5920 5921 5920 5921 5921
5843 5850 5857 5863 5868 5873 5875 5879 5885 5888 5892 5897 5901 5905 5908 5910 5912 5913 5914 5915 5916 5917 5917 5917 5917 5918 5919 5920 5917 5914 5912 5912 5912 5912 5912 5914 5912 5913 5914 5913 5913 5913 5914 5915 5915
5835 5842 5849 5856 5861 5866 5870 5874 5879 5883 5887 5892 5896 5900 5903 5905 5907 5909 5910 5912 5912 5913 5913 5913 5913 5913 5913 5914 5914 5911 5909 5908 5908 5908 5908 5909 5909 5907 5910 5911 5910 5910 5911 5911 5913
5825 5833 5841 5847 5852 5858 5864 5868 5872 5876 5882 5886 5891 5895 5897 5899 5903 5904 5906 5907 5908 5908 5908 5908 5908 5908 5907 5905 5904 5904 5902 5903 5902 5901 5903 5904 5905 5905 5904 5907 5908 5907 5907 5907 5907
5818 5825 5831 5837 5844 5850 5857 5861 5865 5869 5875 5881 5886 5889 5892 5894 5897 5899 5901 5901 5902 5902 5902 5901 5901 5901 5901 5900 5897 5895 5895 5895 5895 5896 5897 5897 5897 5899 5902 5901 5901 5903 5902 5903 5902
5810 5816 5821 5827 5834 5841 5848 5853 5859 5863 5869 5873 5878 5882 5887 5889 5891 5893 5895 5896 5895 5895 5894 5894 5893 5893 5893 5892 5890 5891 5889 5888 5886 5887 5889 5890 5889 5890 5893 5896 5894 5895 5894 5894 5893
Wind_Speed
12 11 11 12 13 13 13 15 14 15 15 14 12 9 6 4 5 6 10 10 8 6 11 13 14 13 13 23 27 29 26 25 25 24 25 23 18 14 18 21 19 16 10 10 10
14 13 13 12 13 13 13 14 13 13 13 12 10 8 5 3 2 3 6 7 8 5 7 12 13 11 14 20 24 28 32 28 33 31 22 22 19 16 14 17 21 17 13 9 10
15 14 13 13 13 13 13 14 14 13 12 10 8 6 4 2 1 2 4 5 6 6 10 14 14 12 11 19 22 25 27 29 31 29 32 27 21 18 12 14 18 18 16 10 9
17 15 14 14 14 14 12 12 12 12 10 9 8 7 5 4 1 0 2 3 5 8 9 11 11 16 11 21 19 23 25 27 23 22 26 27 27 20 16 16 18 17 17 10 10
17 16 15 15 14 13 13 12 11 10 10 10 9 8 7 4 3 0 1 3 6 9 9 10 14 14 9 20 20 21 21 25 25 21 21 23 25 27 20 19 18 19 17 13 9
17 16 16 15 15 14 13 12 11 10 10 10 9 9 8 7 6 3 1 3 6 8 6 9 11 10 9 18 19 20 13 17 17 16 20 16 18 21 23 16 16 17 18 19 18
19 18 18 17 16 15 14 13 12 11 10 10 9 9 7 4 4 3 2 1 3 3 5 6 8 12 12 16 14 13 15 9 13 15 17 19 14 15 18 21 17 14 16 18 20
20 19 19 19 17 16 15 14 12 11 11 9 9 8 7 6 5 5 3 1 2 1 5 4 3 10 10 13 11 4 9 14 13 13 11 15 16 10 15 18 20 16 12 15 19
20 20 20 19 18 17 16 14 13 11 10 10 8 8 7 5 6 5 3 2 2 1 4 2 1 5 9 8 6 4 7 11 8 9 8 11 15 6 6 14 16 18 13 11 13
21 21 21 20 20 18 17 15 14 14 12 11 9 8 7 9 7 6 4 3 2 2 2 3 4 7 11 9 7 9 2 6 4 8 9 11 11 11 8 11 15 20 19 17 13
23 23 23 23 21 19 19 19 18 18 16 14 10 8 10 9 7 7 6 5 5 5 2 6 7 9 11 12 12 11 9 8 10 10 8 8 10 13 11 5 13 18 14 17 16
24 24 24 23 22 21 22 21 18 16 16 15 15 13 11 10 10 8 8 7 6 4 4 7 9 10 12 12 11 10 8 6 9 11 12 15 11 4 11 11 9 7 11 11 16
25 25 24 23 22 23 22 19 18 17 16 15 15 12 12 11 9 8 8 7 5 6 6 7 9 10 11 13 13 10 8 7 9 6 7 5 10 14 9 11 8 6 3 4 11
26 26 25 23 22 21 20 19 19 17 16 16 15 14 12 11 10 8 7 7 7 7 6 10 8 11 10 13 9 8 9 8 5 2 1 3 5 5 12 1 4 2 2 1 5
27 27 26 25 22 22 21 21 20 19 18 18 17 16 14 12 10 9 8 9 8 8 10 11 10 10 13 14 12 9 9 9 4 7 6 3 4 12 5 3 6 4 6 4 4
28 27 27 26 25 26 23 22 22 21 21 19 18 17 15 12 10 9 9 9 9 11 10 9 11 12 12 13 14 13 10 8 4 11 11 8 4 7 6 9 11 5 2 9 9
29 28 27 27 28 27 25 25 24 24 22 23 21 17 14 11 10 8 7 6 8 9 9 9 10 11 11 12 14 14 12 9 5 13 11 11 6 8 14 13 8 8 4 7 6
31 29 28 28 28 28 27 28 28 28 26 24 21 17 15 13 10 8 7 6 7 6 8 10 12 13 12 12 8 9 9 8 7 13 18 14 8 9 15 12 9 2 4 10 11
34 32 29 28 29 29 28 30 30 29 26 24 21 20 16 13 9 6 6 7 7 5 5 8 12 11 10 10 8 8 8 8 7 8 11 16 12 9 10 5 7 9 13 14 18
37 35 32 31 31 30 29 31 31 29 25 24 22 19 16 12 10 9 8 7 5 3 5 6 8 11 13 14 14 12 12 6 10 9 8 13 12 15 13 11 3 10 13 16 15
41 38 36 34 32 32 30 32 32 31 27 21 22 20 16 12 10 9 8 8 7 7 8 3 6 11 14 18 19 18 17 18 16 10 14 9 15 19 8 9 5 8 14 17 16
45 42 40 38 36 33 32 34 33 31 27 22 21 19 16 14 11 11 11 10 10 12 13 15 13 11 11 19 20 26 25 22 19 17 15 11 15 18 13 4 5 9 14 12 11
48 46 44 41 39 37 37 37 35 33 29 26 23 20 17 15 14 15 15 15 16 17 19 20 21 20 17 14 19 24 26 24 23 24 22 17 20 19 16 15 14 15 14 14 18
49 49 48 44 43 40 39 39 38 36 33 30 26 23 22 20 19 18 20 19 20 21 22 24 24 23 22 17 20 26 30 28 27 29 28 24 22 25 22 21 22 23 26 26 26
47 50 50 49 47 44 41 41 41 39 37 35 30 28 26 26 23 22 22 23 24 26 27 27 26 25 24 25 24 24 28 33 30 32 31 33 31 28 31 31 29 28 29 32 31
40 45 46 48 49 47 44 42 43 42 40 36 34 32 31 30 29 27 25 27 29 30 31 30 31 27 24 22 24 23 19 33 40 37 36 38 39 39 36 35 35 38 37 34 38
35 39 43 46 47 47 45 46 45 44 42 40 39 37 33 33 32 30 29 29 32 32 33 34 34 30 27 26 27 25 21 24 41 46 44 41 40 42 41 39 44 43 41 44 46
Wind_Direction
171 158 146 143 148 151 154 155 161 161 157 150 147 146 144 127 103 90 98 101 101 98 94 95 84 69 59 73 73 74 67 67 58 50 54 41 32 38 70 82 81 84 83 77 110
180 171 158 147 147 148 152 153 156 154 154 148 146 146 143 134 97 80 90 82 85 78 69 74 67 54 66 75 80 78 52 57 66 56 51 41 40 24 47 74 80 74 73 52 88
189 181 171 161 156 151 150 148 147 144 143 144 147 149 141 130 93 33 42 52 74 49 45 67 60 49 76 83 85 76 66 69 67 63 62 58 43 46 37 58 80 84 83 68 50
193 188 181 177 170 164 162 158 155 153 150 151 152 158 154 147 193 37 36 25 36 51 54 60 65 65 62 96 90 80 65 65 62 72 62 56 49 46 48 58 70 75 84 86 70
197 194 189 185 182 179 175 173 170 165 157 159 164 163 161 155 145 234 355 358 29 53 61 57 58 63 47 87 75 73 68 69 62 57 51 58 53 48 53 58 61 66 75 87 87
198 198 197 193 191 185 184 182 176 170 168 165 167 167 170 161 165 172 278 342 41 82 74 72 85 106 89 88 77 61 54 58 72 49 45 57 53 52 48 50 60 62 69 75 75
197 199 199 197 195 191 188 185 181 176 174 171 172 171 168 168 176 185 200 5 39 98 62 94 86 129 109 95 74 67 61 66 35 57 42 42 48 59 56 48 51 61 59 73 70
202 200 201 198 195 195 193 190 185 183 180 182 183 177 181 191 190 200 194 147 105 71 72 107 98 139 127 114 112 99 69 62 47 31 41 27 16 62 70 59 41 49 53 58 64
207 205 203 203 198 198 196 196 187 186 185 189 192 192 183 186 187 196 190 167 149 102 99 178 201 165 159 156 146 153 95 65 18 355 355 10 1 78 62 82 65 39 36 37 66
208 209 207 204 203 201 196 198 194 192 191 195 199 202 191 193 207 207 196 207 213 246 148 205 245 220 221 239 218 277 211 114 57 319 332 337 342 78 106 54 65 65 47 40 30
208 209 211 207 207 203 202 201 201 200 196 194 195 206 202 199 209 224 214 221 234 248 209 208 230 240 260 269 272 266 262 187 204 242 256 277 300 127 131 125 69 70 63 35 22
208 209 210 211 206 206 206 206 207 210 208 201 204 203 210 208 200 217 219 221 231 238 224 238 238 263 274 283 278 279 293 297 241 257 274 267 255 209 149 121 101 61 56 50 33
208 208 208 209 207 206 209 205 205 204 208 200 203 201 203 211 206 205 213 212 224 239 237 259 278 287 294 296 275 291 300 315 343 349 299 294 241 232 153 143 130 111 80 44 42
208 209 208 207 206 207 205 202 203 201 202 198 194 198 197 200 203 215 217 228 230 247 247 259 273 283 291 283 278 273 303 322 1 311 207 313 212 209 241 11 110 194 169 112 20
209 209 209 206 202 203 199 199 195 195 198 199 196 195 196 200 208 214 224 234 243 250 247 257 275 278 276 289 297 296 293 303 304 181 171 178 182 173 194 308 287 322 342 4 34
209 209 210 208 205 206 203 201 199 199 199 198 198 200 193 197 210 230 234 240 240 248 255 259 273 282 293 297 297 295 293 291 272 266 253 230 185 175 205 215 228 242 308 347 28
208 209 209 208 208 207 205 202 200 197 196 195 192 191 194 195 206 224 239 239 249 260 266 273 279 281 288 297 300 300 298 292 191 230 253 267 190 178 222 227 242 248 347 351 2
207 208 208 206 207 205 203 202 200 197 198 195 192 195 193 191 195 218 224 233 244 251 273 290 283 297 304 304 291 288 301 297 278 231 239 255 223 227 248 284 296 345 297 327 337
208 208 207 205 203 202 202 203 203 201 200 202 201 199 196 200 205 224 258 268 270 277 287 293 288 289 280 296 309 290 296 318 323 251 221 232 239 266 237 254 281 310 313 311 318
211 209 206 205 201 200 201 206 208 206 202 204 209 210 217 221 225 231 252 265 267 292 322 315 287 291 292 296 294 287 293 295 316 311 283 211 201 220 230 206 292 304 304 304 316
213 211 209 207 204 202 203 207 213 213 208 209 209 212 212 220 238 254 256 267 282 310 313 333 317 302 294 296 297 296 291 281 271 267 293 266 217 213 211 238 237 285 298 307 311
214 213 212 209 208 205 204 210 213 218 218 214 212 216 218 229 241 258 274 280 290 301 310 315 317 327 298 284 282 281 281 276 265 261 264 254 261 239 233 257 311 285 279 272 270
216 215 214 213 211 209 205 211 215 220 223 224 222 222 233 243 257 274 286 293 301 306 312 314 317 318 313 282 275 270 274 278 263 266 260 260 268 268 261 226 222 235 248 258 263
217 217 216 216 215 215 211 216 215 220 225 228 229 230 239 246 255 267 276 285 293 298 302 303 306 307 308 296 268 262 258 258 262 268 259 260 264 268 262 254 227 237 248 256 266
216 219 218 218 218 218 216 218 219 221 222 226 230 234 238 247 251 260 268 278 286 290 293 295 298 300 302 298 291 282 252 241 245 248 248 255 256 265 268 261 260 245 252 258 270
213 216 218 220 221 221 220 217 223 225 226 227 228 232 239 245 254 258 262 272 279 283 288 291 290 290 287 283 287 282 264 236 241 246 251 254 257 266 268 262 259 260 264 273 277
215 213 215 219 220 221 220 222 225 230 230 231 233 235 239 245 253 260 267 270 273 279 283 283 283 281 274 273 275 276 268 252 238 244 250 254 260 265 267 262 269 261 268 271 273